Kuiper-00188

operational
NORAD ID: 67142 Int'l Des: 2025-301 Owner: KUIP Country: US Constellation: kuiper
LEOCIRCULAR

关于 Kuiper-00188

正在加载描述...

实时位置

正在加载3D地球...

即将过境

高度历史

Altitude vs Time

uPlot chart will show altitude changes over time

两行轨道根数

1 67142C 25301K 25350.86815972 .00012671 00000+0 36804-3 0 3503
2 67142 51.8688 105.2148 0007610 110.7520 234.4034 15.34849732 16
Epoch: Dec 16, 2025 • Age: 78 hours

当前状态

高度 457.3 km
速度 7.64 km/s
星下点 20.42°N, 81.45°E
发射日期 Dec 16, 2025
运行时间 3 days
类型 internet

技术详情

分类 Payload
质量 490.00 kg
干质量 490.00 kg
总质量 490.00 kg
长度 1.80 m
直径 0.70 m
跨度 5.00 m
形状 Box + 2 pan
制造商 KUIP
平台类型 Kuiper
阶段状态 In Orbit
所有者/国家 KUIP/US

大型星座

Loading constellations...